Regional Weather Roundup
Issued by NWS Green Bay, WI

Home | Current Version | Previous Version | Graphics & Text | Print | Product List | Glossary Off
Versions: 1 2 3 4 5 6 7 8 9 10 11 12 13 14 15 16 17 18 19 20 21 22 23 24 25 26 27 28 29 30 31 32 33 34 35 36 37 38 39 40 41 42 43 44 45 46 47 48 49 50

000
ASUS43 KGRB 290411
RWRGRB

NORTH-CENTRAL AND NORTHEAST WISCONSIN REGIONAL WEATHER ROUNDUP
NATIONAL WEATHER SERVICE GREEN BAY WI
1100 PM CDT THU MAY 28 2015

WIZ005-009-010>012-018-019-290500-
NORTH CENTRAL WISCONSIN

CITY           SKY/WX    TMP DP  RH WIND       PRES   REMARKS
IRONWOOD       PTCLDY    70  54  56 S5        29.95S
MANITOWISH WTR PTCLDY    65  56  71 S5        30.02R
ARBOR VITAE    MOCLDY    67  56  67 S9        30.04R
EAGLE RIVER    MOCLDY    65  53  64 S5        30.04R
LAND O LAKES   PTCLDY    66  54  65 S3        30.04S
RHINELANDER    MOCLDY    66  55  67 S3        30.06R
PHILLIPS       PTCLDY    65  56  72 S7        30.02S
ANTIGO         PTCLDY    60  56  88 S3        30.06S
TOMAHAWK       PTCLDY    60  55  83 CALM      30.05R
MERRILL        PTCLDY    67  55  65 S3        30.05S
$$

WIZ013-073-290500-
NORTHEAST WISCONSIN

CITY           SKY/WX    TMP DP  RH WIND       PRES   REMARKS
IRON MOUNTAIN  CLEAR     64  61  90 SE6       30.04R
MARINETTE      CLEAR     64  50  59 SW8       30.05S
OCONTO         PTCLDY    66  55  67 S3        30.05S
$$

WIZ017-030-035>037-045-290500-
CENTRAL WISCONSIN

CITY           SKY/WX    TMP DP  RH WIND       PRES   REMARKS
MEDFORD        PTCLDY    62  56  81 SE3       30.04R
WAUSAU         PTCLDY    66  54  65 SE6       30.02S
MOSINEE        PTCLDY    64  54  68 SE3       30.05S
MARSHFIELD     PTCLDY    67  53  61 SE5       30.03R
WISC RAPIDS    PTCLDY    67  53  61 SE5       30.03S
STEVENS POINT  PTCLDY    64  54  68 SE5       30.04S
WAUPACA        CLEAR     68  57  67 SE6       30.05R
SHAWANO        CLEAR     69  58  68 S5        30.05S
CLINTONVILLE   CLEAR     66  55  68 S6        30.05R
$$

WIZ038-039-048-051-290500-
FOX VALLEY

CITY           SKY/WX    TMP DP  RH WIND       PRES   REMARKS
NWS GREEN BAY  CLEAR     68  52  56 S8        30.06S
APPLETON       PTCLDY    66  50  55 S9        30.06F
OSHKOSH        CLEAR     63  53  70 S6        30.05S
FOND DU LAC    CLEAR     65  54  67 SE9       30.05F
$$

WIZ022-050-052-290500-
EAST CENTRAL WISCONSIN

CITY           SKY/WX    TMP DP  RH WIND       PRES   REMARKS
STURGEON BAY   CLEAR     64  52  63 S10       30.09S
MANITOWOC      CLEAR     62  54  74 S5        30.08F
SHEBOYGAN      CLEAR     57  53  86 CALM      30.08F
$$

LMZ563-521-522-541>543-290500-
LAKESHORE

STATION/POSITION TIME  TEMP    WIND        PRES    VSBY  WAVE
                       AIR SEA DIR/SP/G                  HT/PER
                 (UTC) (F)     (DEG/KT/KT) (MB)    (MI)  (FT/S)
SHEBOYGAN LKSHOR 0400   60     190/ 13/ 13 1018.8F
KEWAUNEE LKSHORE 0300   49     140/  3/  7 1017.9F
ALGOMA MARINA    0338           CALM  /  2   N/A
NORTHPORT PIER   0300   60     170/  6/ 10 1018.3S
N MID LAKE BUOY  0350   42 37  160/  4/  6 1019.2F         1
SISTER BAY LKSHO 0318   60     190/ 14/ 17   N/A
CHAMBERS ISLAND  0300   67     160/  7/ 14 1017.6S
MENOMINEE LKSHOR 0300   64     180/  6/  8 1018.4R
$$



USA.gov is the U.S. government's official web portal to all federal, state and local government web resources and services.